GW2639 Weather Reports


Display with metric or nautical units.
time (UTC)temp
F
wind
direction
speed
MPH
gust
MPH
rain 1hr
in
rain 24hr
in
rain mn
in
humidity
%
barometer
mb
20260505101551 48 230 3.0 5.0 0.00 0.00 0.00 92 1013.0
20260505100043 48 206 3.0 5.0 0.00 0.00 0.00 92 1012.6
20260505094542 48 233 2.0 6.0 0.00 0.00 0.00 91 1012.3
20260505093042 48 231 2.0 5.0 0.00 0.00 0.00 91 1012.2
20260505091545 48 216 2.0 5.0 0.00 0.00 0.00 91 1012.1
20260505090044 49 203 1.0 3.0 0.00 0.00 0.00 91 1012.1
20260505084543 49 245 2.0 4.0 0.00 0.00 0.00 91 1012.1
20260505083041 49 236 2.0 5.0 0.00 0.00 0.00 91 1012.0
20260505081540 49 235 1.0 5.0 0.00 0.00 0.00 91 1012.0
20260505080039 49 235 2.0 5.0 0.00 0.00 0.00 90 1011.8
20260505074546 50 232 1.0 3.0 0.00 0.00 0.00 90 1011.7
20260505073052 50 218 1.0 4.0 0.00 0.00 0.00 90 1011.6
20260505071553 50 226 1.0 4.0 0.00 0.00 0.00 90 1011.5
20260505070041 50 231 2.0 4.0 0.00 0.00 0.00 90 1011.5
20260505064541 51 228 2.0 5.0 0.00 0.00 0.00 90 1011.4
20260505063039 51 229 2.0 4.0 0.00 0.00 0.00 89 1011.4
20260505061548 51 231 2.0 4.0 0.00 0.00 0.00 89 1011.4
20260505060050 52 222 1.0 4.0 0.00 0.00 0.00 89 1011.4
20260505054547 52 251 3.0 6.0 0.00 0.00 0.00 88 1011.4
20260505053049 52 241 1.0 4.0 0.00 0.00 0.00 88 1011.3
20260505051555 53 228 2.0 5.0 0.00 0.00 0.00 88 1011.1
20260505041540 54 229 1.0 5.0 0.00 0.00 0.00 86 1010.6
20260505040041 55 238 1.0 5.0 0.00 0.00 0.00 85 1010.5
20260505034542 55 0 2.0 5.0 0.00 0.00 0.00 84 1010.5
20260505033040 56 219 2.0 5.0 0.00 0.00 0.00 83 1010.4
20260505031549 57 222 3.0 6.0 0.00 0.00 0.00 82 1010.3
20260505030040 57 213 3.0 8.0 0.00 0.00 0.00 82 1010.4
20260505024540 58 231 3.0 6.0 0.00 0.00 0.00 81 1010.3
20260505023050 58 229 3.0 6.0 0.00 0.00 0.00 80 1010.2
20260505021541 59 227 3.0 5.0 0.00 0.00 0.00 78 1010.2
20260505020039 60 212 3.0 5.0 0.00 0.00 0.00 77 1010.2
20260505014541 60 210 3.0 6.0 0.00 0.00 0.00 76 1010.1
20260505013057 61 221 2.0 6.0 0.00 0.00 0.00 75 1010.0
20260505011547 62 228 3.0 5.0 0.00 0.00 0.00 74 1010.0
20260505010041 63 236 4.0 7.0 0.00 0.00 0.00 73 1009.8
20260505004540 64 225 2.0 6.0 0.00 0.00 0.00 72 1009.7
20260505003039 65 221 4.0 8.0 0.00 0.00 0.00 70 1009.7
20260505001539 66 226 3.0 5.0 0.00 0.00 0.00 68 1009.7
20260505000054 67 245 2.0 6.0 0.00 0.00 0.00 66 1009.5
20260504234543 68 226 3.0 5.0 0.00 0.00 0.00 64 1009.5
20260504233043 69 242 2.0 5.0 0.00 0.00 0.00 61 1009.3
20260504231542 70 208 2.0 5.0 0.00 0.00 0.00 60 1009.3
20260504230044 72 0 1.0 4.0 0.00 0.00 0.00 54 1009.3
20260504224539 76 235 0.0 6.0 0.00 0.00 0.00 47 1009.5
20260504223047 78 335 1.0 11.0 0.00 0.00 0.00 41 1009.4
20260504221539 77 37 1.0 6.0 0.00 0.00 0.00 43 1009.4
20260504220044 78 5 3.0 6.0 0.00 0.00 0.00 42 1009.3
20260504214555 77 283 2.0 6.0 0.00 0.00 0.00 43 1009.4
20260504213047 77 320 0.0 5.0 0.00 0.00 0.00 43 1009.6
20260504211542 76 151 1.0 7.0 0.00 0.00 0.00 42 1009.9
20260504210042 76 234 4.0 10.0 0.00 0.00 0.00 42 1010.1
20260504204545 76 278 4.0 12.0 0.00 0.00 0.00 41 1010.3
20260504203043 75 283 6.0 13.0 0.00 0.00 0.00 43 1010.4
20260504201559 75 318 2.0 11.0 0.00 0.00 0.00 47 1010.6
20260504200046 73 281 2.0 8.0 0.00 0.00 0.00 50 1010.9
20260504194547 71 56 1.0 4.0 0.00 0.00 0.00 58 1011.2
20260504193040 70 14 0.0 6.0 0.00 0.00 0.00 59 1011.8
20260504191548 72 270 4.0 8.0 0.00 0.00 0.00 49 1012.5
20260504190039 72 285 3.0 9.0 0.00 0.00 0.00 45 1011.5
20260504184559 73 204 2.0 8.0 0.00 0.00 0.00 44 1011.2
20260504183042 74 185 4.0 10.0 0.00 0.00 0.00 44 1011.3
20260504181540 74 16 5.0 15.0 0.00 0.00 0.00 43 1011.3
20260504180053 73 266 6.0 12.0 0.00 0.00 0.00 44 1011.7
20260504174540 72 54 5.0 12.0 0.00 0.00 0.00 45 1011.9
20260504173040 71 91 4.0 19.0 0.00 0.00 0.00 47 1012.1
20260504171540 70 303 1.0 6.0 0.00 0.00 0.00 50 1012.6